Overview Statistics Trail Chart Weather Telemetry Raw packets
 

This is the latest recevied weather packets stored in our database for station/object HA2SKA-1. If no packets are shown the sender has not sent any weather packets the latest 10 day(s).

<< 18 19 20 21 22 23 24 >>
Time Temp. Humidity Pressure Rain* Wind** Luminosity Snow
1788233710 20° C 100% 1020.8 hPa - - - -
1788232810 20.56° C 100% 1021 hPa - - - -
1788231910 19.44° C 100% 1020.8 hPa - - - -
1788231010 21.11° C 100% 1021 hPa - - - -
1788230110 20.56° C 100% 1021 hPa - - - -
1788229210 21.67° C 100% 1020.7 hPa - - - -
1788228310 20.56° C 100% 1020.3 hPa - - - -
1788227410 22.22° C 100% 1020.5 hPa - - - -
1788226510 22.22° C 100% 1020.2 hPa - - - -
1788225609 22.78° C 100% 1019.9 hPa - - - -
1788224709 21.11° C 100% 1020 hPa - - - -
1788223809 20.56° C 100% 1020.1 hPa - - - -
1788222909 20° C 100% 1020.1 hPa - - - -
1788222009 21.67° C 100% 1019.8 hPa - - - -
1788221109 20.56° C 100% 1020.2 hPa - - - -
1788220209 20.56° C 100% 1020.3 hPa - - - -
1788219309 18.89° C 100% 1021.2 hPa - - - -
1788218409 21.11° C 100% 1021 hPa - - - -
1788217509 24.44° C 100% 1021.5 hPa - - - -
1788216609 21.67° C 100% 1021.2 hPa - - - -
1788215708 22.78° C 100% 1020.3 hPa - - - -
1788214808 23.89° C 100% 1020 hPa - - - -
1788213908 22.78° C 100% 1018.1 hPa - - - -
1788213008 23.89° C 89% 1017.6 hPa - - - -
1788212107 23.89° C 89% 1017.4 hPa - - - -

* Rain since midnight (hover to see other rain measurements)
** Current wind speed in m/s (hover to see current wind gust speed)